Voltar ao catálogo

ONEWEB-0374

AtivoComunicaçõesPO
NORAD 49300·PAYLOAD·🇬🇧 United Kingdom

Lançado Oct 14, 2021 de Vostochny Cosmodrome

Loading…

Próximas Passagens (próximas 24 horas)

TLE

AtualizadoSource: CelesTrak SupGP

Época: Sep 14, 2026, 17:32 UTC

1 49300C 21090X   26257.73073333 -.00001589  00000+0 -42909-2 0  2576
2 49300  87.8914 271.8438 0002342 103.9899 357.4574 13.14506821    15

Acompanhe ONEWEB-0374 em tempo real com AllMySat

Download on the App Store